IRIDIUM 33 DEB, 35806

Orbit data source: Space-Track

IRIDIUM 33 DEB, 35806 is space debris in LEO originally from a launch on Sun, 14 Sep 1997 UTC launched from the Tyuratam Missile And Space Complex (TTMTR). The debris from Iridium 33, an American commercial communications satellite, has been tracked extensively since its accidental collision with the defunct Russian satellite Cosmos 2251 in 2009. This event, occurring at high speed in low Earth orbit (LEO), generated thousands of pieces of space debris, significantly increasing the risk of further collisions. The Iridium 33 debris cloud has impacted space traffic management and orbital debris mitigation strategies, making it a subject of ongoing study in space situational awareness.

Loading next visibility...
Identifier
35806, 1997-051SQ
Orbit
LEO
Country
Flag of USUS
Related business
Manufacturer
Unknown
Mission
Spacecraft
Bus & Motor
Unknown
Mass
Unknown
Launch date (UTC)
1997-09-14 (28 years ago)
Launch vehicle
Unknown
Launch site
Tyuratam Missile And Space Complex (TTMTR)
Object type
Payload
Rocket body
Debris
Shape & HBR
Unknown shape, 0.1 m
Radar Cross Section
Small (<0.1 m²)

Expand to show TLE details & history
Last TLE update: 1 week ago

TLE from 1 week ago
0 IRIDIUM 33 DEB
1 35806U 97051SQ  25299.54404706  .00007072  00000-0  15803-2 0  9996
2 35806  86.3459  41.3903 0013386 223.5610 136.4543 14.56601937856376
Epoch: 2025-10-26T13:03Z
TLE epoch observation values (Epoch: 2025-10-26T13:03:25.665Z)
Latitude
0.00004°
Longitude
170.37464°
Altitude
714.128 km
Speed
7.495 km/s
True Right ascension
02h 45m 33s
True Declination
0° 00' 00"
Sunlit
Object was in full shadow at epoch
Visualization orbit readout
Latitude
Unknown
Longitude
Unknown
Altitude
Unknown
Speed
Unknown
Apparent Right ascension
Unknown
Apparent Declination
Unknown
Sunlit
N/A
Visualization observer readout
Local Sidereal Time
18:09:19
Azimuth
Unknown
Elevation
Unknown
Doppler factor
Unknown
Orbital elements
Apogee altitude
710.578 km
Perigee altitude
691.625 km
Semi-major axis
7,079.238 km
Eccentricity
0.00134
Inclination
86.3459°
RAAN
41.3903°
Arg. of periapsis
223.561°
True anomaly
136.55985°
Mean anomaly
136.4543°
Eccentric anomaly
136.50709°
Mean motion
3.64387 °/min
Orbital period
98.8 mins
BSTAR
0.0015803
Loading maneuver chart data...
Computing Atmospheric mass density...

Documentation

Showing up to 5 results
|